EW9936 Weather Reports


Display with metric or nautical units.
time (UTC)temp
F
wind
direction
speed
MPH
gust
MPH
rain 1hr
in
rain 24hr
in
rain mn
in
humidity
%
barometer
mb
20210726010056 76 188 0.0 0.0 0.00 0.00 0.00 96 974.7
20210726004607 76 199 0.0 0.0 0.00 0.00 0.00 95 974.7
20210726003106 76 199 0.0 0.0 0.00 0.00 0.00 94 974.8
20210726001557 77 199 0.0 0.0 0.00 0.00 0.00 93 974.6
20210726000112 77 199 0.0 0.0 0.00 0.00 0.00 93 974.5
20210725234545 78 199 1.0 0.0 0.00 0.00 0.00 92 974.3
20210725233048 79 192 1.0 0.0 0.00 0.00 0.00 91 974.3
20210725231624 79 190 0.0 0.0 0.00 0.00 0.00 90 974.3
20210725230129 80 187 1.0 0.0 0.00 0.00 0.00 88 974.4
20210725224549 81 188 0.0 0.0 0.00 0.00 0.00 88 974.2
20210725223101 81 188 1.0 0.0 0.00 0.00 0.00 86 974.3
20210725221717 82 202 3.0 0.0 0.00 0.00 0.00 84 974.3
20210725220033 82 197 1.0 0.0 0.00 0.00 0.00 82 974.5
20210725214553 82 195 2.0 0.0 0.00 0.00 0.00 84 974.5
20210725213149 81 195 2.0 0.0 0.00 0.00 0.00 87 974.5
20210725211544 81 198 1.0 0.0 0.00 0.00 0.00 88 974.6
20210725210059 81 190 1.0 0.0 0.00 0.00 0.00 90 974.4
20210725204615 81 199 1.0 0.0 0.00 0.00 0.00 90 974.6
20210725203034 81 195 3.0 0.0 0.00 0.00 0.00 94 975.0
20210725201529 80 200 1.0 0.0 0.00 0.00 0.00 95 975.0
20210725200041 80 334 0.0 0.0 0.00 0.00 0.00 95 975.2
20210725194531 82 254 0.0 0.0 0.00 0.00 0.00 90 975.3
20210725193101 83 197 2.0 0.0 0.00 0.00 0.00 82 975.0
20210725191549 84 200 3.0 0.0 0.00 0.00 0.00 80 974.8
20210725190029 84 200 2.0 0.0 0.00 0.00 0.00 81 974.9
20210725184538 84 196 3.0 0.0 0.00 0.00 0.00 80 975.0
20210725183039 84 196 3.0 0.0 0.00 0.00 0.00 81 975.1
20210725181527 84 211 1.0 0.0 0.00 0.00 0.00 80 975.3
20210725180020 84 215 2.0 0.0 0.00 0.00 0.00 81 975.4
20210725174522 82 203 1.0 0.0 0.00 0.00 0.00 82 975.6
20210725173024 82 198 2.0 0.0 0.00 0.00 0.00 81 975.6
20210725171514 83 211 0.0 0.0 0.00 0.00 0.00 80 975.8
20210725170013 83 203 2.0 0.0 0.00 0.00 0.00 80 975.9
20210725164527 83 286 3.0 0.0 0.00 0.00 0.00 80 975.9
20210725163021 83 198 3.0 0.0 0.00 0.00 0.00 80 976.1
20210725161518 82 193 2.0 0.0 0.00 0.00 0.00 79 976.2
20210725160029 82 192 3.0 0.0 0.00 0.00 0.00 81 976.1
20210725153128 81 182 1.0 0.0 0.00 0.00 0.00 82 976.1
20210725151620 80 187 2.0 0.0 0.00 0.00 0.00 84 976.2
20210725150210 79 176 1.0 0.0 0.00 0.00 0.00 86 976.3
20210725144628 78 199 2.0 0.0 0.00 0.00 0.00 85 976.3
20210725143127 78 194 2.0 0.0 0.00 0.00 0.00 85 976.3
20210725141652 77 188 1.0 0.0 0.00 0.00 0.00 87 976.5
20210725140157 76 202 3.0 0.0 0.00 0.00 0.00 88 976.6
20210725134631 75 199 4.0 0.0 0.00 0.00 0.00 90 976.7
20210725133123 74 194 1.0 0.0 0.00 0.00 0.00 92 977.0
20210725131644 74 202 2.0 0.0 0.00 0.00 0.00 93 977.1
20210725130117 73 196 2.0 0.0 0.00 0.00 0.00 94 977.3
20210725124622 72 209 2.0 0.0 0.00 0.00 0.00 98 977.3
20210725123120 70 200 0.0 0.0 0.00 0.00 0.00 100 977.3
20210725121640 69 192 0.0 0.0 0.00 0.00 0.00 100 977.3
20210725120112 68 191 0.0 0.0 0.00 0.00 0.00 100 977.3
20210725114557 67 191 0.0 0.0 0.00 0.00 0.00 100 977.3
20210725113052 67 191 0.0 0.0 0.00 0.00 0.00 100 977.3
20210725111533 66 191 0.0 0.0 0.00 0.00 0.00 100 977.1
20210725110105 66 191 0.0 0.0 0.00 0.00 0.00 100 977.3
20210725104631 66 191 0.0 0.0 0.00 0.00 0.00 100 977.2
20210725103044 66 191 0.0 0.0 0.00 0.00 0.00 100 977.2
20210725101534 66 191 0.0 0.0 0.00 0.00 0.00 100 977.1
20210725100032 66 191 0.0 0.0 0.00 0.00 0.00 100 976.9
20210725094545 66 191 0.0 0.0 0.00 0.00 0.00 100 976.9
20210725093101 66 191 0.0 0.0 0.00 0.00 0.00 100 977.0
20210725091607 66 191 0.0 0.0 0.00 0.00 0.00 100 977.0
20210725090030 66 191 0.0 0.0 0.00 0.00 0.00 100 977.2
20210725084616 66 191 0.0 0.0 0.00 0.00 0.00 100 977.3
20210725083040 66 191 0.0 0.0 0.00 0.00 0.00 100 977.1
20210725081531 66 191 0.0 0.0 0.00 0.00 0.00 100 977.1
20210725080020 67 191 0.0 0.0 0.00 0.00 0.00 100 977.3
20210725074529 67 191 0.0 0.0 0.00 0.00 0.00 100 977.9
20210725073057 67 191 0.0 0.0 0.00 0.00 0.00 100 978.0
20210725071530 67 191 0.0 0.0 0.00 0.00 0.00 100 978.2
20210725070020 67 191 0.0 0.0 0.00 0.00 0.00 100 978.2
20210725064523 67 191 0.0 0.0 0.00 0.00 0.00 100 978.2
20210725063011 67 191 0.0 0.0 0.00 0.00 0.00 100 978.5
20210725061512 67 191 0.0 0.0 0.00 0.00 0.00 100 978.6
20210725060003 67 192 0.0 0.0 0.00 0.00 0.00 99 978.7
20210725054626 68 191 0.0 0.0 0.00 0.00 0.00 99 978.8
20210725053213 68 191 0.0 0.0 0.00 0.00 0.00 98 978.9
20210725051629 68 191 0.0 0.0 0.00 0.00 0.00 97 979.1
20210725050139 69 191 0.0 0.0 0.00 0.00 0.00 95 979.2
20210725044726 70 191 0.0 0.0 0.00 0.00 0.00 92 979.7
20210725043130 72 190 2.0 0.0 0.00 0.00 0.00 88 979.6
20210725041621 72 203 2.0 0.0 0.00 0.00 0.00 83 979.5
20210725040108 72 188 4.0 0.0 0.00 0.00 0.00 83 979.3
20210725034600 73 198 2.0 0.0 0.00 0.00 0.00 83 979.4
20210725033113 73 163 3.0 0.0 0.00 0.00 0.00 83 979.2
20210725031606 73 205 2.0 0.0 0.00 0.00 0.00 83 979.3
20210725030049 73 201 2.0 0.0 0.00 0.00 0.00 81 979.4
20210725024610 73 178 4.0 0.0 0.00 0.00 0.00 79 979.4
20210725023050 73 189 3.0 0.0 0.00 0.00 0.00 79 979.5
20210725021655 73 184 3.0 0.0 0.00 0.00 0.00 80 979.7
20210725020058 73 188 2.0 0.0 0.00 0.00 0.00 82 979.9
20210725014600 73 207 2.0 0.0 0.00 0.00 0.00 83 979.9
20210725013137 73 191 1.0 0.0 0.00 0.00 0.00 84 980.0
20210725011635 74 191 0.0 0.0 0.00 0.00 0.00 82 979.9